Location: *
(49.9853°N, 3.5569°E)
Time: 05:44:03
(UTC+00:00)

GEOS 3 Rocket - Pass Details

Date: 22 September 2019
Orbit: 790 x 829 km, 115.0° (Epoch: 16 October)

Event Time Altitude Azimuth Distance (km) Brightness Sun altitude
Exits shadow 19:30:05 16° 161° (SSE) 1,975 5.2 -17.4°
Maximum altitude 19:34:04 53° 234° (SW) 974 4.2 -17.9°
Drops below altitude 10° 19:39:04 10° 311° (NW) 2,370 7.2 -18.7°
Sets 19:41:26 0° 316° (NW) 3,307 8.0 -19.0°
